When you browse on this site, cookies collect data to enhance your experience and personalize the content and advertising you see.
Visit our Privacy Policy to learn more. By continuing to use the site, you agree to this use of cookies and data.
  • In Spain
  • List of Countries
  • For 7 days
  • Water Temperature
  • Satellite Maps
  • Weather Map
  • Weather Widgets
  • user-avatar
    Login

    Hourly Weather Atlixco

    Today, 17 February, Sunday

    Time Temperature Precipitation Wind Pressure Humidity
    00:00 +20°C° 0 mm 1 mps 610 mmHg 33%
    01:00 +19°C° 0 mm 1 mps 610 mmHg 34%
    02:00 +19°C° 0 mm 1 mps 610 mmHg 35%
    03:00 +18°C° 0 mm 1 mps 610 mmHg 37%
    04:00 +18°C° 0 mm 1 mps 610 mmHg 38%
    05:00 +16°C° 0 mm 1 mps 610 mmHg 40%
    06:00 +19°C° 0 mm 1 mps 611 mmHg 39%
    07:00 +21°C° 0 mm 1 mps 612 mmHg 37%
    08:00 +22°C° 0 mm 1 mps 613 mmHg 36%
    09:00 +24°C° 0 mm 1 mps 613 mmHg 32%
    10:00 +26°C° 0 mm 2 mps 613 mmHg 29%
    11:00 +28°C° 0 mm 3 mps 614 mmHg 25%
    12:00 +28°C° 0 mm 3 mps 613 mmHg 23%
    13:00 +29°C° 0 mm 3 mps 613 mmHg 21%
    14:00 +30°C° 0 mm 4 mps 612 mmHg 19%
    15:00 +28°C° 0 mm 3 mps 612 mmHg 21%
    16:00 +27°C° 0 mm 3 mps 612 mmHg 23%
    17:00 +26°C° 0 mm 2 mps 611 mmHg 26%
    18:00 +25°C° 0 mm 2 mps 611 mmHg 27%
    19:00 +23°C° 0 mm 1 mps 611 mmHg 29%
    20:00 +21°C° 0 mm 1 mps 612 mmHg 31%
    21:00 +21°C° 0 mm 1 mps 612 mmHg 31%
    22:00 +20°C° 0 mm 1 mps 612 mmHg 31%
    23:00 +20°C° 0 mm 1 mps 612 mmHg 31%

    Tomorrow, 18 February, Monday

    Time Temperature Precipitation Wind Pressure Humidity
    00:00 +19°C° 0 mm 1 mps 611 mmHg 31%
    01:00 +19°C° 0 mm 1 mps 611 mmHg 32%
    02:00 +18°C° 0 mm 1 mps 611 mmHg 32%
    03:00 +18°C° 0 mm 1 mps 611 mmHg 32%
    04:00 +18°C° 0 mm 1 mps 611 mmHg 32%
    05:00 +16°C° 0 mm 1 mps 610 mmHg 32%
    06:00 +19°C° 0 mm 1 mps 612 mmHg 30%
    07:00 +21°C° 0 mm 1 mps 613 mmHg 27%
    08:00 +21°C° 0 mm 0 mps 614 mmHg 24%
    09:00 +25°C° 0 mm 1 mps 614 mmHg 24%
    10:00 +26°C° 0 mm 2 mps 615 mmHg 23%
    11:00 +28°C° 0 mm 3 mps 615 mmHg 22%
    12:00 +28°C° 0 mm 3 mps 614 mmHg 22%
    13:00 +29°C° 0 mm 4 mps 614 mmHg 22%
    14:00 +29°C° 0 mm 4 mps 613 mmHg 22%
    15:00 +28°C° 0 mm 4 mps 612 mmHg 23%
    16:00 +27°C° 0 mm 3 mps 612 mmHg 24%
    17:00 +26°C° 0 mm 3 mps 612 mmHg 26%
    18:00 +24°C° 0 mm 2 mps 612 mmHg 26%
    19:00 +23°C° 0 mm 2 mps 612 mmHg 26%
    20:00 +21°C° 0 mm 1 mps 612 mmHg 27%
    21:00 +20°C° 0 mm 1 mps 612 mmHg 27%
    22:00 +20°C° 0 mm 1 mps 612 mmHg 28%
    23:00 +19°C° 0 mm 1 mps 612 mmHg 29%

    Day after tomorrow, 19 February, Tuesday

    Time Temperature Precipitation Wind Pressure Humidity
    00:00 +19°C° 0 mm 1 mps 611 mmHg 28%
    01:00 +18°C° 0 mm 1 mps 611 mmHg 27%
    02:00 +18°C° 0 mm 1 mps 610 mmHg 26%
    03:00 +16°C° 0 mm 1 mps 610 mmHg 26%
    04:00 +16°C° 0 mm 1 mps 610 mmHg 26%
    05:00 +15°C° 0 mm 1 mps 610 mmHg 26%
    06:00 +18°C° 0 mm 1 mps 611 mmHg 25%
    07:00 +20°C° 0 mm 1 mps 612 mmHg 25%
    08:00 +21°C° 0 mm 1 mps 613 mmHg 24%
    09:00 +23°C° 0 mm 2 mps 613 mmHg 22%
    10:00 +25°C° 0 mm 3 mps 613 mmHg 21%
    11:00 +26°C° 0 mm 4 mps 614 mmHg 19%
    12:00 +27°C° 0 mm 4 mps 613 mmHg 18%
    13:00 +27°C° 0 mm 5 mps 612 mmHg 16%
    14:00 +27°C° 0 mm 5 mps 611 mmHg 15%
    15:00 +26°C° 0 mm 4 mps 611 mmHg 17%
    16:00 +25°C° 0 mm 4 mps 611 mmHg 19%
    17:00 +24°C° 0 mm 3 mps 610 mmHg 22%
    18:00 +22°C° 0 mm 3 mps 610 mmHg 25%
    19:00 +20°C° 0 mm 2 mps 610 mmHg 28%
    20:00 +19°C° 0 mm 1 mps 610 mmHg 31%
    21:00 +19°C° 0 mm 1 mps 610 mmHg 35%
    22:00 +18°C° 0 mm 1 mps 610 mmHg 38%
    23:00 +18°C° 0 mm 1 mps 610 mmHg 42%

    20 February, Wednesday

    Time Temperature Precipitation Wind Pressure Humidity
    00:00 +16°C° 0 mm 1 mps 609 mmHg 43%
    01:00 +16°C° 0 mm 1 mps 609 mmHg 45%
    02:00 +15°C° 0 mm 1 mps 608 mmHg 46%
    03:00 +15°C° 0 mm 1 mps 608 mmHg 46%
    04:00 +14°C° 0 mm 1 mps 608 mmHg 47%
    05:00 +14°C° 0 mm 1 mps 608 mmHg 47%
    06:00 +16°C° 0 mm 1 mps 609 mmHg 43%
    07:00 +18°C° 0 mm 1 mps 610 mmHg 38%
    08:00 +20°C° 0 mm 1 mps 611 mmHg 34%
    09:00 +21°C° 0 mm 2 mps 611 mmHg 30%
    10:00 +22°C° 0 mm 3 mps 612 mmHg 26%
    11:00 +25°C° 0 mm 4 mps 612 mmHg 23%
    12:00 +26°C° 0 mm 4 mps 611 mmHg 21%
    13:00 +26°C° 0 mm 5 mps 611 mmHg 19%
    14:00 +27°C° 0 mm 5 mps 610 mmHg 17%
    15:00 +26°C° 0 mm 4 mps 610 mmHg 19%
    16:00 +25°C° 0 mm 4 mps 609 mmHg 20%
    17:00 +22°C° 0 mm 3 mps 609 mmHg 21%
    18:00 +21°C° 0 mm 3 mps 609 mmHg 24%
    19:00 +19°C° 0 mm 2 mps 609 mmHg 26%
    20:00 +17°C° 0 mm 2 mps 609 mmHg 28%
    21:00 +18°C° 0 mm 1 mps 609 mmHg 28%
    22:00 +16°C° 0 mm 1 mps 609 mmHg 29%
    23:00 +16°C° 0 mm 1 mps 609 mmHg 29%

    21 February, Thursday

    Time Temperature Precipitation Wind Pressure Humidity
    00:00 +15°C° 0 mm 1 mps 609 mmHg 29%
    01:00 +15°C° 0 mm 1 mps 609 mmHg 30%
    02:00 +15°C° 0 mm 1 mps 608 mmHg 30%
    03:00 +14°C° 0 mm 1 mps 608 mmHg 31%
    04:00 +14°C° 0 mm 1 mps 608 mmHg 31%
    05:00 +14°C° 0 mm 1 mps 608 mmHg 31%
    06:00 +16°C° 0 mm 1 mps 609 mmHg 28%
    07:00 +18°C° 0 mm 1 mps 610 mmHg 26%
    08:00 +20°C° 0 mm 1 mps 612 mmHg 23%
    09:00 +21°C° 0 mm 2 mps 612 mmHg 21%
    10:00 +24°C° 0 mm 3 mps 612 mmHg 18%
    11:00 +26°C° 0 mm 4 mps 613 mmHg 16%
    12:00 +27°C° 0 mm 4 mps 612 mmHg 16%
    13:00 +27°C° 0 mm 4 mps 611 mmHg 15%
    14:00 +28°C° 0 mm 5 mps 611 mmHg 15%
    15:00 +27°C° 0 mm 4 mps 611 mmHg 17%
    16:00 +26°C° 0 mm 4 mps 610 mmHg 19%
    17:00 +25°C° 0 mm 3 mps 610 mmHg 21%
    18:00 +22°C° 0 mm 3 mps 610 mmHg 24%
    19:00 +20°C° 0 mm 2 mps 610 mmHg 26%
    20:00 +19°C° 0 mm 1 mps 610 mmHg 28%
    21:00 +19°C° 0 mm 1 mps 610 mmHg 28%
    22:00 +18°C° 0 mm 1 mps 610 mmHg 28%
    23:00 +18°C° 0 mm 1 mps 610 mmHg 28%

    22 February, Friday

    Time Temperature Precipitation Wind Pressure Humidity
    00:00 +16°C° 0 mm 1 mps 610 mmHg 28%
    01:00 +16°C° 0 mm 1 mps 609 mmHg 28%
    02:00 +15°C° 0 mm 1 mps 609 mmHg 28%
    03:00 +15°C° 0 mm 1 mps 609 mmHg 28%
    04:00 +15°C° 0 mm 1 mps 609 mmHg 29%
    05:00 +14°C° 0 mm 1 mps 609 mmHg 29%
    06:00 +18°C° 0 mm 1 mps 611 mmHg 26%
    07:00 +20°C° 0 mm 1 mps 612 mmHg 23%
    08:00 +20°C° 0 mm 0 mps 613 mmHg 21%
    09:00 +23°C° 0 mm 1 mps 613 mmHg 19%
    10:00 +25°C° 0 mm 2 mps 614 mmHg 17%
    11:00 +27°C° 0 mm 3 mps 614 mmHg 14%
    12:00 +28°C° 0 mm 3 mps 613 mmHg 15%
    13:00 +28°C° 0 mm 3 mps 613 mmHg 15%
    14:00 +28°C° 0 mm 4 mps 612 mmHg 16%
    15:00 +27°C° 0 mm 3 mps 612 mmHg 18%
    16:00 +26°C° 0 mm 3 mps 612 mmHg 20%
    17:00 +25°C° 0 mm 3 mps 611 mmHg 22%
    18:00 +24°C° 0 mm 2 mps 611 mmHg 25%
    19:00 +21°C° 0 mm 2 mps 611 mmHg 28%
    20:00 +20°C° 0 mm 1 mps 611 mmHg 31%
    21:00 +20°C° 0 mm 1 mps 611 mmHg 32%
    22:00 +19°C° 0 mm 1 mps 611 mmHg 33%
    23:00 +18°C° 0 mm 1 mps 611 mmHg 34%
    Show more